This is the latest recevied weather packets stored in our database for station/object KD8FRE. If no packets are shown the sender has not sent any weather packets the latest 10 day(s).
| Time | Temp. | Humidity | Pressure | Rain* | Wind** | Luminosity | Snow |
|---|---|---|---|---|---|---|---|
| 1777746208 | 7.22° C | 48% | 1017.7 hPa | 0 mm | - | 149 W/m² | - |
| 1777745904 | 7.22° C | 43% | 1017.6 hPa | 0 mm | - | 293 W/m² | - |
| 1777745604 | 7.22° C | 44% | 1017.7 hPa | 0 mm | - | 326 W/m² | - |
| 1777745301 | 6.67° C | 44% | 1017.6 hPa | 0 mm | - | 374 W/m² | - |
| 1777744998 | 7.22° C | 43% | 1017.8 hPa | 0 mm | - | 724 W/m² | - |
| 1777744694 | 7.78° C | 44% | 1017.9 hPa | 0 mm | - | 325 W/m² | - |
| 1777744388 | 7.22° C | 46% | 1017.8 hPa | 0 mm | - | 688 W/m² | - |
| 1777744085 | 6.67° C | 44% | 1018 hPa | 0 mm | - | 267 W/m² | - |
| 1777743782 | 7.22° C | 43% | 1018 hPa | 0 mm | - | 273 W/m² | - |
| 1777743480 | 6.67° C | 43% | 1018 hPa | 0 mm | - | 330 W/m² | - |
| 1777743177 | 6.67° C | 43% | 1018 hPa | 0 mm | - | 260 W/m² | - |
| 1777742875 | 6.67° C | 44% | 1018 hPa | 0 mm | - | 260 W/m² | - |
| 1777742570 | 6.67° C | 44% | 1018.1 hPa | 0 mm | - | 288 W/m² | - |
| 1777742266 | 6.67° C | 47% | 1018.2 hPa | 0 mm | - | 299 W/m² | - |
| 1777741964 | 6.11° C | 45% | 1018.2 hPa | 0 mm | - | 222 W/m² | - |
| 1777741660 | 6.11° C | 45% | 1018.2 hPa | 0 mm | - | 197 W/m² | - |
| 1777741357 | 6.67° C | 44% | 1018.2 hPa | 0 mm | - | 240 W/m² | - |
| 1777741053 | 6.67° C | 44% | 1018.1 hPa | 0 mm | - | 290 W/m² | - |
| 1777740750 | 6.11° C | 46% | 1018.2 hPa | 0 mm | - | 202 W/m² | - |
| 1777740446 | 6.11° C | 43% | 1018.2 hPa | 0 mm | - | 171 W/m² | - |
| 1777740144 | 6.11° C | 44% | 1018.4 hPa | 0 mm | - | 162 W/m² | - |
| 1777739840 | 6.11° C | 44% | 1018.3 hPa | 0 mm | - | 215 W/m² | - |
| 1777739531 | 6.11° C | 45% | 1018.2 hPa | 0 mm | - | 252 W/m² | - |
| 1777739228 | 5.56° C | 44% | 1018.3 hPa | 0 mm | - | 190 W/m² | - |
| 1777738924 | 6.11° C | 46% | 1018.4 hPa | 0 mm | - | 155 W/m² | - |
* Rain latest hour (hover to see other rain measurements)
** Current wind speed in m/s (hover to see current wind gust speed)